Location: Casone le Fosse
(44.6547°N, 12.1103°E)
Time: 12:12:09
(UTC+00:00)

Atlas Centaur 2 - Pass Details

Date: 29 October 2020
Orbit: 459 x 1309 km, 30.4° (Epoch: 27 November)

Event Time Altitude Azimuth Distance (km) Brightness Sun altitude
Rises 19:02:10 0° 254° (WSW) 4,227 6.7 -32.1°
Reaches altitude 10° 19:05:34 10° 243° (WSW) 3,303 5.8 -32.7°
Maximum altitude 19:12:21 27° 191° (S) 2,259 4.3 -33.8°
Enters shadow 19:12:24 27° 190° (S) 2,259 4.3 -33.8°
